Preview of NWS' New Version of Forecast
This preview is not operational and should not be used for support decisions.

Regional Weather Roundup (RWR)

Issued by National Weather Service (NWS)

                            
000
ASUS43 KMKX 201000
RWRWI 

WISCONSIN REGIONAL WEATHER ROUNDUP
NATIONAL WEATHER SERVICE MILWAUKEE/SULLIVAN WI
500 AM CDT THU JUN 20 2019

NOTE: "FAIR" INDICATES FEW OR NO CLOUDS BELOW 12,000 FEET WITH NO
SIGNIFICANT WEATHER AND/OR OBSTRUCTIONS TO VISIBILITY.

WIZ001-002-006>008-014>016-023>028-201100-
NORTHWEST WISCONSIN
  
CITY           SKY/WX    TMP DP  RH WIND       PRES   REMARKS
SUPERIOR ARPT  FAIR      45  45  99 CALM      29.84R                  
ASHLAND        FAIR      41  41 100 S3        29.84R                  
HAYWARD        FAIR      50  47  89 NE6       29.83R                  
SIREN          FAIR      54  48  80 CALM      29.82R                  
CUMBERLAND     FAIR      55  45  67 E5        29.81R                  
RICE LAKE      FAIR      58  48  68 E5        29.82R                  
CHETEK           N/A     57  49  75 E6        29.81R                  
LADYSMITH      FAIR      51  46  82 NE3       29.83R                  
EAU CLAIRE     NOT AVBL                                               
MENOMONIE      MOCLDY    56  51  82 E5        29.80R                  
NEW RICHMOND   FAIR      59  49  68 E5        29.79R                  
OSCEOLA        FAIR      61  51  68 E3        29.80R                  
$$
 
WIZ003>005-009-010-017-018-201100-
NORTH CENTRAL WISCONSIN
  
CITY           SKY/WX    TMP DP  RH WIND       PRES   REMARKS
MANITOWISH WTR FAIR      43  43 100 CALM      29.83R                  
ARBOR VITAE    FAIR      47  45  93 CALM      29.82R                  
WOODRUFF       FAIR      47  45  93 CALM      29.82R                  
RHINELANDER    FAIR      50  43  77 CALM      29.82R                  
EAGLE RIVER    FAIR      41  40  99 CALM      29.82R                  
LAND O LAKES   FAIR      39  39 100 CALM      29.85R                  
PHILLIPS       FAIR      45  45 100 CALM      29.82R                  
TOMAHAWK       FAIR      42  41  97 CALM      29.82R                  
MEDFORD        FAIR      48  44  84 NE6       29.80R                  
MERRILL        FAIR      46  45  95 CALM      29.81R                  
$$
 
WIZ029-030-035-036-043>047-201100-
CENTRAL WISCONSIN
  
CITY           SKY/WX    TMP DP  RH WIND       PRES   REMARKS
WAUSAU         FAIR      53  42  66 NW6       29.77R                  
MOSINEE        FAIR      50  43  76 N5        29.79R                  
MARSHFIELD     FAIR      54  45  71 NE7       29.77R                  
STEVENS POINT  FAIR      49  46  89 N3        29.78R                  
WAUPACA        FAIR      57  49  74 N6        29.76R                  
WAUTOMA        FAIR      56  49  77 N7        29.75R                  
WISC RAPIDS    FAIR      56  47  71 NE7       29.77R                  
CAMP DOUGLAS   FAIR      51  51 100 W6        29.76R                  
$$
 
WIZ011>013-019>022-031-037>040-048>050-201100-
NORTHEAST WISCONSIN
  
CITY           SKY/WX    TMP DP  RH WIND       PRES   REMARKS
ANTIGO         FAIR      48  42  80 NE6       29.80R                  
SHAWANO        FAIR      57  47  71 NE9       29.76R                  
OCONTO         FAIR      52  46  81 N5        29.75R                  
STURGEON BAY   FAIR      54  49  83 N7        29.74S                  
GREEN BAY      FAIR      56  49  77 N9        29.73S                  
MANITOWOC      CLOUDY    56  47  71 N9G18     29.71S                  
APPLETON       FAIR      54  45  71 N12       29.71S                  
CLINTONVILLE   FAIR      55  45  69 N6        29.76R                  
OSHKOSH        FAIR      59  51  75 N13       29.71R                  
$$
 
WIZ032>034-041-042-053>061-201100-
SOUTHWEST WISCONSIN
  
CITY           SKY/WX    TMP DP  RH WIND       PRES   REMARKS
LA CROSSE      FAIR      60  56  86 CALM      29.77R                  
SPARTA         FAIR      49  49  99 CALM      29.77S                  
VIROQUA        FAIR      55  55  99 N3        29.77R                  
BOSCOBEL       FAIR      55  53  93 W3        29.75R                  
PRAIRIE DU CHI CLOUDY    59  58  96 NW5       29.75R FOG              
PLATTEVILLE    FAIR      56  56 100 N6        29.73S                  
$$

WIZ056-057-062-063-064-067-068-201100-
SOUTH CENTRAL WISCONSIN
  
CITY           SKY/WX    TMP DP  RH WIND       PRES   REMARKS
REEDSBURG      FAIR      56  55  95 N5        29.74R                  
BARABOO/DELLS  FAIR      56  52  84 N3        29.74R                  
LONE ROCK      NOT AVBL                                               
MINERAL POINT  FAIR      57  57 100 N6        29.73S                  
MADISON        FAIR      57  54  89 N7        29.70R                  
MIDDLETON      FAIR      58  55  89 N7        29.71R                  
WATERTOWN      CLOUDY    57  55  93 N8        29.68R                  
MONROE         FAIR      56  54  92 N9        29.69R                  
JANESVILLE     CLOUDY    59  55  88 N7        29.67R                  
$$
 
WIZ051-052-058>065-066-070>072-201100-
SOUTHEAST WISCONSIN
  
CITY           SKY/WX    TMP DP  RH WIND       PRES   REMARKS
MILWAUKEE      LGT RAIN  53  51  93 N17       29.64F FOG              
WAUKESHA       DRIZZLE   54  54 100 N6        29.66F                  
MILWAUKEE/TIMM DRIZZLE   55  52  88 NE10      29.66F                  
RACINE         RAIN      52  50  93 N13       29.65F FOG              
KENOSHA        CLOUDY    57  56  96 N9        29.62F                  
FOND DU LAC    CLOUDY    61  49  64 NE14      29.70S                  
SHEBOYGAN      CLOUDY    56  47  71 NE14      29.69S                  
WEST BEND      CLOUDY    54  52  94 NE8       29.68S                  
JUNEAU         MOCLDY    57  51  82 N9        29.70R                  
$$

LSZ147-162-201100-
LAKE SUPERIOR
  
STATION/POSITION TIME  TEMP    WIND        PRES    WAVE
                       AIR SEA DIR/SP/G            HT/PER
                 (UTC) (F)     (DEG/KT/KT) (MB)    (FT/S)
W MID LAKE BUOY  0850   44 38     CALM     1010.3F   0
$$
 
LMZ867-665-643>646-201100-
LAKE MICHIGAN
  
STATION/POSITION TIME  TEMP    WIND        PRES    WAVE
                       AIR SEA DIR/SP/G            HT/PER
                 (UTC) (F)     (DEG/KT/KT) (MB)    (FT/S)
N MID LAKE BUOY  0940   44 39   30/  8/  8 1007.8R
NORTHPORT PIER   0940   56     360/  2/  4 1007.1S
KEWAUNEE LAKESHO 0924   56      30/  7/ 12 1005.9
SHEBOYGAN LAKESH 0900   51      10/ 20/ 24 1005.5R
MILWAUKEE LAKESH 0940   52     360/ 18/ 23   N/A
S MID LAKE BUOY  0940   50 46   10/ 12/ 14 1003.0R
KENOSHA   LAKESH 0900   54     360/ 14/ 17 1003.4
$$

TC  - TEMPERATURE IN CELSIUS
VSB - VISIBILITY IN STATUTE MILES
WCI - WIND CHILL INDEX
HX  - HEAT INDEX